Regional Weather Roundup
Issued by NWS

Home | Current Version | Previous Version | Graphics & Text | Print | Product List | Glossary On
Versions: 1 2 3 4 5 6 7 8 9 10 11 12 13 14 15 16 17 18 19 20 21 22 23 24 25 26 27 28 29 30 31 32 33 34 35 36 37 38 39 40 41 42 43 44 45 46 47 48 49 50
000
ASUS43 KFSD 262010
RWRSD

WEATHER ROUNDUP FOR SOUTH DAKOTA
NATIONAL WEATHER SERVICE SIOUX FALLS SD
300 PM CDT SAT JUL 26 2014

NOTE: "FAIR" INDICATES FEW OR NO CLOUDS BELOW 12,000 FEET WITH NO
SIGNIFICANT WEATHER AND/OR OBSTRUCTIONS TO VISIBILITY.


SDZ001>005-009-010-012>017-262100-
NORTHWEST AND NORTH CENTRAL SOUTH DAKOTA

CITY           SKY/WX    TMP DP  RH WIND       PRES   REMARKS
BUFFALO          N/A     78  43  28 NW29G40   29.99F
FAITH            N/A     82  43  25 NW26G35   30.02S
MOBRIDGE       SUNNY     83  48  29 NW21G31   29.91R
$$

SDZ012>016-024>037-041>051-057-063-072>074-262100-
SOUTHWEST AND SOUTH CENTRAL SOUTH DAKOTA

CITY           SKY/WX    TMP DP  RH WIND       PRES   REMARKS
RAPID CTY ARPT SUNNY     81  45  28 N16G28    30.07S
PIERRE         SUNNY     85  48  27 NW18      29.95F
CUSTER         SUNNY     80  32  17 W17G24    30.19S
ELLSWORTH AFB  SUNNY     82  43  25 N23G29    30.06S
PHILIP         SUNNY     87  44  22 N16G31    30.00F
PINE RIDGE     SUNNY     81  48  31 NE13G18   30.08F
WINNER         MOCLDY    83  67  58 NW10G17   29.99S
$$

SDZ004>011-016>023-039-040-262100-
NORTHEAST SOUTH DAKOTA

CITY           SKY/WX    TMP DP  RH WIND       PRES   REMARKS
ABERDEEN       SUNNY     83  49  30 NW20      29.88S
WATERTOWN      MOSUNNY   81  66  60 W17       29.90R
SISSETON         N/A     83  56  39 NW14G24   29.83S
$$

SDZ017-020-022-023-036>040-048>070-262100-
SOUTHEAST SOUTH DAKOTA

CITY           SKY/WX    TMP DP  RH WIND       PRES   REMARKS
SIOUX FALLS    MOSUNNY   81  62  52 SW3       29.91R
HURON          MOSUNNY   83  64  52 SW13G18   29.92S
CHAMBERLAIN    MOSUNNY   82  63  51 N6        29.96F
MITCHELL       MOSUNNY   83  65  54 W5        29.94S
YANKTON        MOSUNNY   79  70  73 E6        29.90S
$$

ABBREVIATIONS USED IN REMARKS
   TC - TEMPERATURE IN CELSIUS
  WCI - WIND CHILL INDEX
   HX - HEAT INDEX
  VSB - VISIBILITY



USA.gov is the U.S. government's official web portal to all federal, state and local government web resources and services.